Regional Weather Roundup
Issued by NWS

Home | Current Version | Previous Version | Graphics & Text | Print | Product List | Glossary On
Versions: 1 2 3 4 5 6 7 8 9 10 11 12 13 14 15 16 17 18 19 20 21 22 23 24 25 26 27 28 29 30 31 32 33 34 35 36 37 38 39 40 41 42 43 44 45 46 47 48 49 50
000
ASUS43 KIND 152109
RWRIN

WEATHER ROUNDUP FOR INDIANA
NATIONAL WEATHER SERVICE INDIANAPOLIS IN
500 PM EDT MON SEP 15 2014

NOTE: "FAIR" INDICATES FEW OR NO CLOUDS BELOW 12,000 FEET WITH NO
SIGNIFICANT WEATHER AND/OR OBSTRUCTIONS TO VISIBILITY.

* - STATION DOES NOT REPORT WEATHER SUCH AS PRECIPITATION OR FOG.

+ - STATION NOT QUALITY CONTROLLED BY THE NATIONAL WEATHER SERVICE.
    USE DATA WITH CAUTION...ESPECIALLY DEWPOINT AND RELATIVE
    HUMIDITY OBSERVATIONS.

INZ001>003-010>013-019-020-152200-
NORTHWEST INDIANA

CITY           SKY/WX    TMP DP  RH WIND       PRES   REMARKS
GARY /AIRPORT/ CLOUDY    59  52  77 SW8       30.09S
KNOX *+        CLOUDY    55  51  88 CALM      30.08F
LA PORTE +     DRIZZLE   54  53  97 W5        30.10R
MICHIGAN CITY+ CLOUDY    55  54  94 SW5       30.10R
MONTICELLO +   CLOUDY    57  55  92 CALM      30.07S
RENSSELAER +   DRIZZLE   55  55 100 CALM      30.09S
VALPARAISO     CLOUDY    55  52  89 SW5       30.10R

$$

LMZ046-743>745-152200-
SOUTHERN LAKE MICHIGAN

STATION/POSITION TIME  TEMP WIND        PRES
                       AIR  DIR/SP/G
                 (UTC) (F)  (DEG/KT/KT) (MB)
MICHIGAN CITY    2100   56  200/ 10/ 12   N/A

$$

INZ004-005-014>016-021>024-152200-
NORTH CENTRAL INDIANA

CITY           SKY/WX    TMP DP  RH WIND       PRES   REMARKS
ELKHART        LGT RAIN  57  52  82 SW5       30.09S
GOSHEN         CLOUDY    58  50  75 SW7       30.08S
LOGANSPORT +   CLOUDY    55  52  88 CALM      30.10R
PERU/GRISSOM   CLOUDY    58  58 100 W2        30.08S
ROCHESTER +    CLOUDY    59  54  82 CALM      30.08S
SOUTH BEND     LGT RAIN  56  52  86 SW5       30.10R
WARSAW +       RAIN      55  52  88 CALM      30.08S

$$

INZ006>009-017-018-025>027-152200-
NORTHEAST INDIANA

CITY           SKY/WX    TMP DP  RH WIND       PRES   REMARKS
ANGOLA *+      CLOUDY    59  48  67 SW5       30.08S
AUBURN +       LGT RAIN  55  50  82 CALM      30.09R
FORT WAYNE     CLOUDY    58  53  84 CALM      30.08F
HUNTINGTON +   CLOUDY    57  53  86 CALM      30.07F

$$

INZ028-029-035-036-043>045-051>053-152200-
WEST CENTRAL INDIANA

CITY           SKY/WX    TMP DP  RH WIND       PRES   REMARKS
GREENCASTLE +  FAIR      57  54  88 S3        30.08R
LAFAYETTE      CLOUDY    57  54  89 CALM      30.07S
TERRE HAUTE    LGT RAIN  59  53  80 S9G20     30.05F

$$

INZ030>032-037>040-046>048-054>057-064-065-152200-
CENTRAL INDIANA

CITY           SKY/WX    TMP DP  RH WIND       PRES   REMARKS
CP ATTERBURY + FAIR      55  52  88 S13       30.06F
COLUMBUS       LGT RAIN  57  55  94 S14       30.07F
FRANKFORT +    PTSUNNY   58  58 100 SW3       30.10R
INDIANAPOLIS   CLOUDY    57  54  89 W12       30.09R
-EAGLE CREEK   PTSUNNY   56  53  90 W7        30.09R
KOKOMO *+      CLOUDY    57  54  88 CALM      30.08S
MARION +       PTSUNNY   57  55  92 CALM      30.07F
MT COMFORT *+  FAIR      57  55  94 S6        30.06R
SHELBYVILLE    LGT RAIN  60  54  80 S17G28    29.99F
ZIONSVILLE +   FAIR      57  52  83 W7        30.10R

$$

INZ033-034-041-042-049-050-058-059-152200-
EAST CENTRAL INDIANA

CITY           SKY/WX    TMP DP  RH WIND       PRES   REMARKS
MUNCIE         FAIR      59  54  83 VRB3      30.06F

$$

INZ060-061-067>069-081>083-085>088-152200-
SOUTHWEST INDIANA

CITY           SKY/WX    TMP DP  RH WIND       PRES   REMARKS
EVANSVILLE     CLOUDY    76  55  48 SE5       30.08F
WASHINGTON +   CLOUDY    67  57  71 SE14      30.07F

$$

INZ062-063-066-070>080-084-089>092-152200-
SOUTH CENTRAL AND SOUTHEAST INDIANA

CITY           SKY/WX    TMP DP  RH WIND       PRES   REMARKS
BLOOMINGTON    LGT RAIN  59  55  87 SE9       30.07F

$$




USA.gov is the U.S. government's official web portal to all federal, state and local government web resources and services.